Weather Roundup
Issued by NWS Chicago, IL

Home | Current Version | Previous Version | Graphics & Text | Print | Product List | Glossary On
Versions: 1 2 3 4 5 6 7 8 9 10 11 12 13 14 15 16 17 18 19 20 21 22 23 24 25 26 27 28 29 30 31 32 33 34 35 36 37 38 39 40 41 42 43 44 45 46 47 48 49 50
000
NZUS59 KLOT 282303
HRRLOT

CHICAGO AREA WEATHER ROUNDUP
NATIONAL WEATHER SERVICE CHICAGO/ROMEOVILLE IL
600 PM CDT FRI APR 28 2017

NOTE: "FAIR" INDICATES FEW OR NO CLOUDS BELOW 12,000 FEET WITH NO
SIGNIFICANT WEATHER AND/OR OBSTRUCTIONS TO VISIBILITY.

* THESE STATIONS ARE NOT UNDER NWS QUALITY CONTROL. THEY ALSO MAY NOT
  REPORT WEATHER SUCH AS PRECIPITATION OR FOG.

ILZ005-006-012>014-019>023-290000-
NORTHEAST ILLINOIS

CITY           SKY/WX    TMP DP  RH WIND       PRES   REMARKS
OHARE          PTSUNNY   58  45  62 NE10      29.87R
MIDWAY         CLOUDY    57  46  66 E10       29.87S
AURORA         CLOUDY    60  50  69 SE12      29.86R
LANSING*       CLOUDY    56  49  77 NE7       29.87S
WAUKEGAN       CLOUDY    47  41  80 NE5       29.89R HAZE
DUPAGE AIRPORT CLOUDY    59  48  67 SE10      29.86R HAZE
WHEELING       CLOUDY    51  44  77 NE9       29.90R
MORRIS*        CLOUDY    60  51  72 SE5       29.84S
NORTHERLY ISL    N/A     48  43  82 N7          N/A
$$

WIZ051-052-058>065-066-070>072-290000-
SOUTHEAST WISCONSIN

CITY           SKY/WX    TMP DP  RH WIND       PRES   REMARKS
MILWAUKEE      CLOUDY    47  40  76 CALM      29.90R
KENOSHA*       CLOUDY    47  40  76 NE6       29.90R
RACINE*        CLOUDY    46  39  76 E3        29.92R
WAUKESHA       CLOUDY    48  39  71 NE8       29.91R
$$

INZ001>003-010>013-019-020-290000-
NORTHWEST INDIANA

CITY           SKY/WX    TMP DP  RH WIND       PRES   REMARKS
GARY*          CLOUDY    52  45  76 NE7       29.89R
MICHIGAN CITY* NOT AVBL
RENSSELAER*    NOT AVBL
VALPARAISO     LGT RAIN  60  53  77 S7        29.89R
$$

LMZ740>746-290000-
SOUTHERN LAKE MICHIGAN

STATION/POSITION TIME  SKY/WX   TEMP WIND        PRES    VSBY
                                AIR  DIR/SP/G
                 (UTC)          (F)  (DEG/KT/KT) (MB)    (MI)
HARRISON CRIB    2230            47   60/ 13/ 14   N/A
BURNHAM HARBOR   2300            47   20/  7/  8   N/A
CALUMET HARBOR   2230            49   20/  6/  8 1011.5R
BURNS HARBOR     2240            48   40/  6/  8 1012.5R
MICHIGAN CITY    2240            53  360/  6/  7   N/A
$$

ABBREVIATIONS USED IN REMARKS
   TC - TEMPERATURE IN CELSIUS
  WCI - WIND CHILL INDEX
   HX - HEAT INDEX
  VSB - VISIBILITY
$$



USA.gov is the U.S. government's official web portal to all federal, state and local government web resources and services.